Location: ????? ????
(37.9717°N, 23.4051°E)
Time: 03:51:10
(UTC+00:00)

SL-27 R/B - Visible Passes

Search period start: 25 July 2024 00:00
Search period end: 04 August 2024 00:00
Orbit: 314 x 338 km, 74.7° (Epoch: 24 July)

Date Brightness Start Highest point End Pass type
(mag) Time Alt. Az. Time Alt. Az. Time Alt. Az.
29 Jul 5.5 20:38:40 10° N 20:38:44 10° N 20:38:44 10° N visible
31 Jul 4.7 19:40:48 10° NNE 19:41:05 11° NNE 19:41:05 11° NNE visible
01 Aug 4.5 19:56:46 10° N 19:57:36 17° N 19:57:36 17° N visible
02 Aug 5.0 20:13:19 10° NNW 20:13:58 15° NW 20:13:58 15° NW visible
03 Aug 4.1 18:58:08 10° NNE 18:59:11 14° NE 18:59:11 14° NE visible
